Погода в Сатуне

Таиланд     6°36′51″N   100°03′58″E
темп.,
°C
ветер,
м/с
пор.,
м/с
влажн.,
%
обл.,
%
осадки,
мм/ч
давл.,
гПа
погр.,
м
7 мая, пт
пт701:00+26в4781100 1.8 1009345
04:00+26в4780100 0.0 1008346
07:00+26св2482100 0.0 1010275
10:00+28всв4675100 0.0 1011641
13:00+30в6771100 0.0 10081039
16:00+29всв3576100 1.7 1006328
19:00+29св3776100 4.2 1008465
22:00+28всв4679100 0.2 1010434
8 мая, сб
сб801:00+27в3383100 0.4 1008246
04:00+27вюв3483100 0.1 1007361
07:00+27в228267 0.2 1009279
10:00+28юв227597 0.0 1010454
13:00+28зюз2276100 0.3 1009424
16:00+29ссз1270100 0.8 1007381
19:00+29ссз1171100 1.3 1008354
22:00+28с1174100 1.6 1010199
9 мая, вс
вс901:00+28с338099 3.3 1008237
04:00+27св118072 0.9 1008200
07:00+27св118193 0.6 1009215
10:00+28вюв1177100 0.0 1010352
13:00+29юз337341 0.0 1008492
16:00+29юз337365 0.9 1006454
19:00+29в1174100 2.4 1008182
22:00+28вюв117698 1.6 100989
10 мая, пн
пн1001:00+28всв117666 3.1 1008257
04:00+28в117933 0.0 1007270
07:00+27св118199 0.0 1008220
10:00+28вюв007775 0.0 1010370
13:00+29зюз437417 0.1 1008477
16:00+29з22719 0.9 1006572
19:00+29ссз337447 1.6 1007434
22:00+29с337718 0.1 1009413
11 мая, вт
вт1101:00+28ссв22788 0.6 1008223
04:00+27в227949 0.0 1007181
07:00+27всв117879 0.0 1008254
10:00+29зсз11749 0.1 1010356
13:00+29з337575 0.1 1008499
16:00+30з56735 0.0 1006796
19:00+29зсз457658 0.5 1007745
22:00+29сз447791 0.8 1009491